Regional Weather Roundup
Issued by NWS

Home | Current Version | Previous Version | Text Only | Print | Product List | Glossary On
Versions: 1 2 3 4 5 6 7 8 9 10 11 12 13 14 15 16 17 18 19 20 21 22 23 24 25 26 27 28 29 30 31 32 33 34 35 36 37 38 39 40 41 42 43 44 45 46 47 48 49 50
874
ASUS43 KBIS 121810
RWRND

NORTH DAKOTA REGIONAL WEATHER ROUNDUP
NATIONAL WEATHER SERVICE BISMARCK ND
1200 PM CST TUE DEC 12 2017

NOTE: "FAIR" INDICATES FEW OR NO CLOUDS BELOW 12,000 FEET WITH NO
SIGNIFICANT WEATHER AND/OR OBSTRUCTIONS TO VISIBILITY.


NDZ001>003-009>011-017-121900-
NORTHWEST NORTH DAKOTA

CITY           SKY/WX    TMP DP  RH WIND       PRES   REMARKS
WILLISTON      SUNNY     40  26  57 SW13      29.95F
MINOT          SUNNY     43  26  51 SW16      29.86F
MINOT AFB      SUNNY     42  25  51 W18       29.84F
$$

NDZ018>021-031>035-040>046-121900-
SOUTHWEST NORTH DAKOTA

CITY           SKY/WX    TMP DP  RH WIND       PRES   REMARKS
BISMARCK       SUNNY     42  27  55 W8        29.96F
6HR MIN TEMP:  20; 6HR MAX TEMP:  42;

DICKINSON      SUNNY     47  25  42 W16       29.94F
GARRISON         N/A     42  27  55 W17       29.90F
6HR MIN TEMP:  25; 6HR MAX TEMP:  42;

HETTINGER ARPT SUNNY     49  23  36 W16       30.01F
$$

NDZ004>008-012>016-024-026-027-054-121900-
NORTHEAST NORTH DAKOTA

CITY           SKY/WX    TMP DP  RH WIND       PRES   REMARKS
GRAND FORKS    CLOUDY    28  26  92 S10       29.89F WCI  19
GRND FRKS AFB  CLOUDY    34  28  77 SW7       29.89F
DEVILS LAKE    CLOUDY    33  28  81 SW9       29.87F
$$

NDZ022-023-025-028>030-036>039-047>053-121900-
SOUTHEAST NORTH DAKOTA

CITY           SKY/WX    TMP DP  RH WIND       PRES   REMARKS
FARGO          CLOUDY    32  27  81 S9        29.94F
6HR MIN TEMP:  16; 6HR MAX TEMP:  32;

JAMESTOWN      CLOUDY    35  28  75 W10       29.92F
$$





USA.gov is the U.S. government's official web portal to all federal, state and local government web resources and services.